RH
5 4 4 4 3 3 3 3 2 2 2 2 2 2 3 4 5 8 10 12 15 18 22 27 30 31 32 31 30 29 28 26 24 22 20 19 18 17 15 15 14 13 13 12 12 12 12 12 12 11 11 10 10 10 9 10 9 9 9 9 11 7 17 36 39 29 32 31 10 2 6 5 6 4 17 26 24 42 55 57 53 37 34 33 37 54 48 33
5 4 4 4 4 3 3 3 2 2 2 2 3 3 3 5 9 12 15 19 22 26 31 35 36 38 39 38 37 35 33 31 28 26 25 23 21 20 19 17 16 15 15 15 15 15 14 14 14 13 12 11 12 11 10 11 10 11 9 12 10 9 29 42 39 33 27 21 7 2 7 6 5 5 19 34 35 37 43 56 53 30 22 21 28 43 33 17
5 4 4 4 4 3 3 3 3 3 2 2 3 4 4 6 11 16 21 26 30 35 40 43 44 44 44 43 42 39 37 35 32 30 28 26 25 24 22 20 19 18 17 17 17 17 17 17 16 15 14 13 13 11 11 11 11 12 10 13 10 14 38 36 19 17 12 10 6 4 7 6 7 5 18 46 54 54 58 58 58 52 33 20 27 28 16 9
5 5 4 4 4 4 3 3 3 3 3 3 3 4 5 7 11 17 24 31 35 40 46 50 51 50 49 48 46 43 40 38 35 32 30 28 27 26 25 24 22 21 20 20 20 19 19 18 17 16 16 14 14 13 12 12 12 13 12 12 15 19 30 21 8 10 7 7 6 6 9 7 8 4 20 58 63 60 73 71 63 66 59 39 26 15 9 11
5 5 5 4 4 4 4 4 4 3 3 4 3 4 5 6 10 14 21 31 38 43 48 53 56 56 54 53 52 49 45 42 37 34 32 29 28 28 27 26 24 23 23 22 22 21 20 19 19 17 16 16 15 14 13 14 13 14 14 13 18 19 17 13 10 10 6 8 8 7 10 7 9 6 12 39 55 65 77 76 63 60 71 60 34 21 16 14
5 5 5 5 5 5 5 4 4 4 4 5 5 5 5 6 8 12 17 26 36 44 50 53 58 61 59 58 58 56 53 48 42 39 35 31 29 28 28 27 26 25 24 23 23 22 21 20 20 18 17 17 16 15 15 16 15 14 15 15 17 14 13 14 10 8 8 10 9 9 11 8 9 9 8 13 32 67 79 76 74 69 72 61 38 28 21 16
5 5 5 6 6 6 6 6 5 5 5 5 6 7 7 7 8 11 14 20 30 40 50 53 58 64 64 62 61 61 60 54 48 45 41 37 32 29 28 28 27 26 25 24 24 23 22 21 20 19 18 18 17 16 16 17 16 15 16 16 18 15 16 16 10 11 13 11 10 10 10 10 11 10 12 11 15 42 55 55 69 71 59 44 28 21 18 18
5 6 6 6 7 7 7 7 7 6 6 6 7 8 8 9 9 11 13 16 22 32 44 50 55 63 66 66 65 66 63 58 54 49 46 44 40 34 29 28 28 27 26 25 25 23 23 21 21 20 19 19 18 17 17 18 16 15 17 17 17 15 16 16 11 13 14 11 11 11 12 12 13 11 9 12 10 14 28 40 53 58 42 23 18 17 18 20
5 6 6 7 8 8 8 8 8 8 8 8 8 9 9 10 10 11 13 15 18 25 35 44 49 55 63 66 67 68 65 61 58 51 47 46 45 42 35 31 28 28 27 26 25 24 23 22 21 20 19 19 19 18 17 17 16 16 18 18 17 16 17 16 14 16 14 13 13 11 15 13 11 14 11 14 14 10 24 37 38 41 30 15 19 22 21 24
6 6 6 8 8 9 9 9 10 10 9 10 10 11 11 11 12 12 13 14 17 21 27 37 42 45 53 60 64 66 63 60 57 52 48 46 44 44 41 37 32 30 29 27 25 25 24 22 21 20 19 19 18 18 17 17 16 16 17 17 17 17 17 17 15 16 15 15 14 13 15 15 14 13 14 16 12 13 28 31 25 30 23 15 21 23 23 26
6 6 7 8 8 9 10 10 11 11 12 12 12 14 14 13 13 13 13 14 16 18 23 32 39 42 44 49 56 59 58 57 54 48 47 45 42 42 41 40 38 34 31 29 27 25 24 22 21 20 19 19 18 17 17 17 16 16 17 17 16 16 17 17 17 17 17 15 14 16 16 17 16 11 19 28 16 14 27 27 28 32 22 14 19 22 22 24
7 7 7 8 9 9 9 10 11 11 12 13 14 16 18 18 16 14 14 14 15 16 20 26 36 42 41 42 46 48 49 51 50 47 45 44 42 41 40 40 40 37 34 30 28 26 25 22 20 20 19 18 17 17 16 16 16 15 15 16 16 16 17 17 18 18 17 17 15 18 19 17 15 12 25 34 19 16 26 30 36 30 19 16 17 19 19 19
8 8 8 8 9 9 10 10 10 10 12 13 16 18 21 22 20 16 14 15 16 16 18 21 31 40 42 42 42 44 45 45 46 45 44 43 42 41 40 40 39 39 37 33 30 27 24 22 20 19 18 17 16 15 16 15 15 16 15 16 15 15 17 17 19 20 17 19 18 18 19 17 16 14 22 26 21 24 26 30 36 28 18 17 17 18 17 16
8 8 9 9 9 9 9 10 9 10 11 13 16 19 23 25 25 21 16 16 16 17 18 19 27 36 44 47 43 48 55 55 54 52 46 43 43 44 42 41 39 38 38 35 31 27 23 21 19 18 17 16 15 14 14 14 14 14 13 14 15 15 16 16 17 20 19 18 18 19 19 20 22 19 19 18 21 32 34 33 36 30 21 17 18 19 17 15
9 9 9 9 10 9 9 9 9 10 11 13 16 20 25 27 29 26 21 18 17 18 19 18 23 31 45 52 46 50 60 60 61 59 52 47 46 47 46 42 40 38 37 36 32 28 24 21 18 17 17 14 14 14 13 13 14 14 15 13 14 14 14 22 24 18 20 20 17 21 19 22 31 34 36 27 17 26 36 37 34 30 22 16 19 18 15 16
9 9 9 9 9 9 9 9 9 11 12 13 16 20 25 29 31 30 26 22 20 20 19 19 21 27 44 54 51 53 57 56 57 56 53 53 52 49 47 45 42 39 37 35 31 27 22 19 17 15 15 14 13 12 11 12 12 12 13 11 14 13 13 33 38 17 17 22 17 21 20 21 31 41 49 35 17 22 29 29 29 27 21 16 19 18 16 16
11 10 10 10 10 10 10 10 10 11 12 13 15 19 25 29 31 32 30 27 25 22 21 22 21 27 41 50 51 52 54 56 56 54 53 54 54 51 49 47 44 41 37 33 28 23 19 16 16 14 13 13 11 12 12 12 13 13 15 13 12 13 15 37 49 24 15 23 19 20 21 23 37 48 52 38 22 27 28 23 27 26 21 19 18 18 18 16
11 11 11 11 10 10 10 10 10 11 12 13 15 19 24 30 32 33 33 32 30 26 23 22 21 29 40 47 53 52 52 56 57 55 53 53 54 52 50 47 43 40 35 30 23 18 17 15 14 13 12 12 11 12 10 12 15 11 12 12 12 23 22 31 55 39 15 21 22 19 20 23 44 57 49 36 26 28 29 23 26 26 21 20 19 19 19 18
12 11 11 11 11 11 11 11 11 11 12 12 14 18 23 29 32 33 34 34 34 31 28 25 26 30 34 44 56 54 52 55 55 54 53 51 51 50 49 46 42 37 29 22 18 15 15 15 14 13 12 11 12 11 11 26 46 47 34 16 12 38 37 20 50 59 22 18 22 18 22 20 33 50 37 24 23 25 28 25 25 26 22 21 21 19 18 19
12 12 11 12 12 11 11 11 11 11 12 13 14 17 21 26 31 33 35 36 35 34 32 29 31 34 35 44 54 54 53 54 53 52 50 49 48 46 45 43 38 30 22 17 15 15 15 14 13 12 12 11 12 12 12 28 54 71 66 35 16 41 48 20 42 66 30 14 24 18 22 20 20 33 30 20 20 23 26 26 26 24 22 21 20 20 20 20
12 12 12 12 12 12 12 12 12 12 12 13 14 17 21 24 28 31 36 40 37 36 37 33 32 37 41 47 54 55 54 54 52 51 49 46 44 42 39 36 32 23 17 15 15 15 15 15 13 12 12 11 12 12 12 14 18 29 38 29 23 37 48 39 48 59 27 10 23 20 19 24 19 21 33 30 19 21 25 23 24 22 20 22 20 20 19 20
11 11 11 12 12 12 12 11 11 11 11 12 14 16 19 22 25 26 32 43 42 36 37 39 37 38 41 45 53 57 55 53 52 50 47 42 38 37 34 29 23 18 16 16 15 16 15 15 13 12 12 10 11 11 11 13 10 13 15 13 25 37 45 60 63 43 19 11 18 21 20 23 19 21 40 41 20 19 25 20 22 22 20 20 20 20 19 19
10 10 10 11 11 11 11 11 11 11 11 12 13 15 17 20 22 22 27 41 48 40 35 39 40 39 41 45 51 55 55 53 52 49 43 38 34 31 29 24 19 17 17 16 16 16 16 16 14 13 12 10 11 12 11 12 12 15 17 11 25 40 44 65 68 31 11 16 16 24 30 25 20 21 31 32 20 21 22 19 21 20 20 20 19 20 18 18
10 9 9 9 8 9 9 9 10 10 12 12 13 13 14 17 20 20 23 33 47 48 39 37 40 40 41 44 48 50 51 51 51 49 40 34 31 28 24 19 18 17 16 17 17 16 17 18 16 13 13 11 10 11 11 12 12 11 16 15 22 47 55 59 65 42 19 15 15 24 33 30 27 22 21 23 21 22 20 20 22 19 20 20 18 20 18 17
20 18 17 16 15 15 15 15 15 15 16 16 15 14 13 15 15 17 20 25 39 48 44 40 40 40 40 41 43 42 45 48 48 48 41 32 27 24 21 18 18 19 18 19 17 17 22 20 16 14 13 12 10 11 9 10 13 11 15 15 19 56 78 61 47 38 25 17 15 19 24 33 39 27 21 23 19 20 21 20 20 18 18 18 17 18 15 15
32 32 31 31 29 29 29 29 27 25 24 22 19 17 16 15 14 15 17 21 30 40 44 46 42 39 39 39 39 38 40 42 43 46 41 32 26 21 19 19 20 20 20 21 18 20 26 22 16 15 14 11 10 11 10 10 11 10 13 12 16 47 75 69 45 26 29 38 33 21 18 41 64 49 29 24 19 21 25 19 17 20 18 16 15 14 15 19
39 39 39 38 36 35 35 35 36 34 31 29 26 24 20 18 16 14 16 21 26 32 42 49 47 42 40 38 37 36 36 36 39 43 40 32 26 20 19 20 21 22 21 20 20 18 21 21 17 16 15 13 13 10 11 11 8 21 31 15 8 24 34 42 39 22 34 58 54 35 22 43 81 75 44 29 22 25 29 19 18 27 24 16 15 17 21 27
44 44 43 42 39 39 38 37 38 38 37 36 33 31 27 23 20 18 23 26 24 29 37 43 47 47 44 41 40 37 34 35 34 33 33 31 24 18 19 22 21 23 21 21 25 22 18 19 18 18 15 12 14 12 13 12 7 31 50 24 6 14 12 14 20 18 34 57 61 52 36 39 68 74 55 42 34 31 28 18 18 29 29 20 20 24 28 37
46 45 44 43 42 42 40 39 40 41 42 41 39 37 33 29 25 22 29 32 28 31 34 35 42 47 46 43 43 41 38 35 32 29 29 28 24 19 19 22 23 24 24 24 27 26 22 20 18 18 17 17 19 16 15 14 10 20 30 20 9 11 14 14 11 15 35 47 51 62 57 49 66 78 64 50 44 38 30 26 23 24 28 26 25 32 43 56
40 40 39 39 38 38 38 38 39 41 42 42 42 41 38 35 29 26 27 28 30 33 32 35 40 45 51 48 42 43 42 38 36 35 32 26 22 20 18 21 24 25 25 26 26 25 26 26 20 18 20 26 29 23 15 12 13 13 15 20 17 13 17 13 6 21 45 44 40 63 73 61 71 83 68 57 58 53 42 36 31 29 42 49 43 45 51 60
29 29 28 28 29 29 30 32 34 37 39 41 43 42 42 39 33 30 27 26 28 27 29 37 38 39 52 56 50 46 43 42 40 37 34 30 24 21 21 23 25 26 26 26 26 24 26 29 27 21 19 23 24 19 14 13 13 14 22 30 27 21 18 13 14 28 44 47 47 68 76 60 66 82 82 74 61 50 45 40 37 38 48 58 59 59 56 56
14 14 14 14 15 15 17 19 22 27 31 35 40 41 43 43 38 34 31 31 34 30 28 32 32 36 47 55 59 56 48 46 43 39 36 33 29 24 23 25 26 27 27 27 27 25 26 29 28 24 19 19 20 17 17 14 11 15 19 27 44 53 43 39 45 37 33 47 59 76 83 68 70 87 92 81 55 42 48 43 43 46 44 49 57 60 58 58
5 6 5 5 6 6 7 8 9 13 19 26 32 37 42 42 39 37 33 34 38 38 38 38 36 42 48 50 57 60 59 53 47 44 40 37 36 31 27 29 29 29 33 34 31 29 28 28 27 26 23 21 20 25 33 22 11 16 13 18 54 77 63 54 62 54 48 59 64 73 84 79 76 74 71 73 61 50 53 47 40 47 54 59 64 70 74 70
4 4 4 4 4 4 4 4 4 4 6 11 18 28 35 35 35 39 37 34 36 38 41 43 45 46 46 48 54 56 61 64 55 48 44 41 42 41 35 33 32 33 38 39 36 37 37 34 31 27 26 27 20 26 51 48 22 11 14 36 71 82 71 64 68 72 71 76 80 72 66 74 77 63 53 63 59 47 59 66 49 43 52 52 49 59 69 64
5 5 5 5 5 5 4 4 4 4 4 4 6 12 18 24 34 43 42 36 35 40 41 38 41 44 41 44 53 56 64 77 72 56 50 47 45 47 45 40 36 34 37 40 44 52 52 49 47 37 28 31 26 22 38 52 45 25 19 53 86 87 81 74 68 72 70 78 96 81 57 63 69 59 52 53 48 43 58 69 56 47 48 40 35 41 50 54
6 6 6 6 5 6 5 5 4 3 5 4 3 5 6 12 25 39 49 44 38 53 64 53 43 45 47 51 61 67 71 86 88 72 64 56 48 49 50 50 48 41 41 45 49 56 58 66 75 58 38 34 34 30 24 37 70 68 41 56 89 94 90 82 75 73 62 66 89 81 62 61 55 50 56 59 57 54 52 51 50 51 46 38 39 42 48 57
8 7 7 7 6 6 5 6 6 4 5 4 4 4 2 5 10 26 52 54 41 51 65 63 52 46 49 59 76 82 71 77 85 76 71 69 62 57 50 55 59 52 51 49 50 57 57 72 87 66 50 50 44 42 33 27 60 87 78 76 91 92 82 81 89 87 68 61 74 78 73 72 61 47 46 54 57 54 51 52 54 57 52 46 44 41 44 53
7 7 7 6 6 6 6 5 5 4 5 4 4 4 4 5 2 11 36 44 40 45 43 45 53 52 52 62 84 94 75 69 74 63 64 73 73 70 65 69 68 59 59 55 55 68 66 73 83 64 64 75 55 47 48 32 36 67 90 95 94 89 78 69 68 67 66 62 62 70 72 72 76 67 49 43 41 39 47 54 55 58 59 56 53 49 47 49
8 7 6 7 7 6 6 6 5 5 5 4 4 3 3 6 3 10 25 25 34 51 38 32 51 61 62 67 86 101 88 80 79 64 64 74 74 78 82 89 85 68 67 66 63 74 76 78 85 75 81 88 67 53 51 40 32 38 56 79 93 94 87 79 64 52 64 72 64 71 79 74 75 75 59 46 41 40 44 50 56 59 59 58 58 56 54 51
7 6 7 10 9 6 5 5 4 4 5 4 5 5 4 4 2 9 20 14 26 55 45 32 50 61 57 60 76 94 92 84 77 66 69 75 76 80 81 88 93 81 74 74 72 77 76 77 87 90 91 84 70 62 55 52 57 49 40 51 73 83 79 78 75 65 76 89 80 80 90 85 74 64 55 53 55 53 49 52 61 62 60 61 62 62 63 61
6 14 21 13 7 7 5 4 7 8 10 9 5 5 5 7 5 4 14 15 22 48 52 37 45 54 52 57 66 75 85 85 74 69 77 81 81 82 80 83 91 88 82 81 83 86 82 77 86 94 91 81 78 82 75 70 81 86 73 54 53 72 79 73 72 75 83 90 91 92 91 89 85 72 62 61 58 57 60 65 67 65 64 68 70 70 71 69
7 21 25 10 3 8 4 6 16 23 31 33 23 14 5 3 9 12 24 30 21 33 53 44 35 41 49 59 59 58 75 90 89 84 85 89 91 89 86 87 86 87 94 97 94 92 88 85 87 87 84 81 86 94 87 75 77 88 93 81 68 70 75 71 72 81 84 79 86 98 92 87 93 87 77 72 58 50 57 61 60 59 63 70 75 76 73 71
9 17 17 9 7 9 6 15 30 40 48 48 44 50 42 22 15 20 36 48 27 19 47 53 37 35 44 55 59 58 64 77 92 95 85 85 97 95 89 87 83 84 95 95 84 82 91 96 92 89 87 82 84 89 82 78 82 80 79 87 91 85 82 83 81 84 88 81 81 93 89 82 89 90 87 82 66 51 51 51 49 49 50 55 59 58 56 53
14 17 18 15 9 6 9 16 27 39 47 44 46 69 84 62 32 21 36 60 46 22 39 55 41 30 37 48 56 60 59 60 75 90 84 78 87 93 91 88 85 87 91 85 74 75 91 96 89 90 92 87 90 93 86 84 86 81 77 82 90 91 92 94 87 85 92 87 83 92 92 83 84 88 86 81 74 64 55 49 47 47 45 45 44 41 40 39
11 13 14 15 10 9 15 14 15 25 32 36 40 54 73 73 53 31 26 49 61 42 40 59 52 29 26 40 48 55 60 56 58 74 84 81 80 89 97 96 90 89 92 93 90 87 92 93 90 93 91 87 94 99 95 93 87 82 86 85 83 85 87 86 83 86 89 82 78 87 89 84 85 85 79 77 79 75 65 58 57 57 55 53 50 47 45 43
11 11 10 18 19 16 19 14 9 12 12 16 24 26 31 42 51 45 26 34 60 50 37 67 81 48 23 31 42 48 55 56 53 60 73 80 84 88 92 91 86 83 85 89 94 96 98 98 98 100 93 86 92 95 91 91 92 94 94 85 81 85 85 82 82 84 83 78 78 84 84 86 91 87 80 79 79 73 68 69 70 67 63 59 56 53 49 46
12 9 8 19 22 23 42 50 39 29 20 18 26 29 24 18 25 37 30 31 52 49 39 71 98 71 32 25 35 43 50 54 52 50 56 75 92 93 87 84 77 74 74 75 80 87 93 96 97 100 100 95 95 98 95 92 96 102 98 86 81 81 79 80 82 78 75 78 85 89 86 86 88 87 90 94 86 72 68 72 74 71 66 63 60 57 52 48
11 10 14 16 14 33 72 88 72 49 30 26 32 34 33 24 15 24 31 28 40 60 71 82 88 72 43 25 26 34 44 54 58 55 54 72 90 86 79 79 74 70 72 71 73 77 79 83 87 90 95 98 98 98 99 98 96 91 84 80 80 80 80 82 81 75 73 81 89 89 87 89 88 89 96 101 94 82 74 73 75 73 69 66 64 60 55 51
10 14 21 15 14 41 74 79 67 46 26 31 43 44 46 39 21 23 34 27 29 61 92 93 76 58 40 26 24 31 42 55 66 67 61 67 77 73 68 70 68 68 71 68 71 75 73 75 80 80 84 89 93 98 101 99 94 86 80 78 81 86 87 83 80 78 79 83 82 80 86 95 96 97 101 101 98 93 85 81 81 76 71 67 62 58 54 51
11 11 17 18 18 37 64 80 87 76 56 60 75 78 71 54 29 24 35 41 44 57 80 91 78 52 31 24 26 29 36 46 58 68 68 64 64 64 63 65 64 68 71 68 69 72 71 72 75 75 79 80 80 90 99 101 98 94 89 85 86 90 87 80 76 79 83 84 80 78 84 89 90 93 100 101 99 95 90 88 85 78 71 66 64 63 59 52
14 9 9 18 21 28 48 72 91 94 79 74 84 85 71 54 41 39 49 63 74 73 74 80 71 46 27 24 25 25 27 31 37 49 57 55 52 54 56 59 61 66 68 64 64 68 74 81 81 76 77 81 80 83 90 96 99 100 98 94 94 92 88 85 83 81 82 85 87 86 84 81 80 83 91 99 101 98 95 91 86 81 75 68 68 71 65 55
16 12 9 13 19 27 42 54 70 89 89 87 90 79 63 64 71 74 76 80 85 85 78 67 54 40 29 25 24 24 24 24 24 28 33 35 37 40 43 47 50 53 55 53 52 60 71 79 82 80 79 81 83 85 88 93 96 98 100 100 101 99 95 95 94 88 82 82 86 87 83 82 84 84 87 92 94 95 96 94 91 87 81 76 74 72 65 59
Wind_Speed
29 29 29 30 30 30 30 30 30 30 30 30 29 29 28 27 26 26 25 24 24 23 23 22 22 22 22 22 22 22 23 23 24 24 25 25 26 26 27 28 28 28 27 27 26 25 25 24 24 24 24 25 24 24 24 24 24 23 24 22 20 20 16 15 16 17 18 26 38 29 18 23 24 22 19 19 20 18 20 21 22 22 23 23 21 21 23 24
28 29 29 29 29 29 29 29 29 28 28 28 28 28 27 27 26 25 24 23 23 22 21 20 20 20 20 20 20 20 21 21 22 22 23 23 24 24 25 26 26 25 25 24 24 23 23 23 23 23 24 24 24 25 24 24 24 23 23 20 20 18 13 19 23 23 28 32 34 22 15 22 23 20 17 16 18 18 19 20 21 22 23 24 22 22 24 24
28 28 28 28 28 28 27 27 27 27 26 26 27 27 27 26 26 25 24 23 22 21 21 20 20 19 19 19 19 19 20 20 21 20 21 21 22 22 23 24 24 24 23 23 22 22 21 21 22 22 23 24 24 25 24 24 24 23 22 20 20 16 17 27 30 29 31 30 29 20 16 21 21 19 16 14 15 16 17 18 19 20 22 24 23 24 23 21
27 27 27 27 26 26 26 26 25 25 25 25 25 25 26 26 26 26 25 24 23 22 21 20 20 19 19 19 18 19 19 21 21 19 20 20 20 21 21 22 22 23 22 22 22 22 22 21 22 22 23 24 24 25 24 24 24 23 23 20 17 20 26 29 26 29 31 27 26 19 16 20 19 17 15 14 14 16 16 15 18 19 20 23 24 23 20 18
26 26 25 25 25 25 25 24 24 24 23 23 23 24 25 25 26 26 26 25 24 23 22 21 21 20 19 19 19 19 19 22 20 18 20 20 20 20 20 21 21 22 22 21 22 22 22 22 22 23 24 24 24 25 24 23 23 24 24 20 21 26 28 26 28 30 27 25 23 19 18 19 17 16 17 16 14 16 18 17 18 19 21 24 22 18 17 17
25 25 24 24 24 24 24 23 23 23 23 22 22 22 23 24 25 26 27 27 25 24 23 23 21 21 21 20 20 20 21 23 19 16 18 19 20 20 20 21 21 22 21 21 22 21 22 22 22 23 24 24 25 25 24 24 24 24 23 20 25 28 22 26 32 27 23 24 23 20 19 17 16 16 17 16 17 19 20 18 19 19 21 22 18 15 15 16
24 24 23 23 23 23 23 22 22 22 22 22 22 22 22 23 24 25 27 28 28 26 25 24 24 23 22 22 22 22 24 25 21 18 18 18 19 20 21 22 22 22 22 22 22 22 22 22 22 23 24 25 27 26 25 26 26 25 23 22 27 26 22 30 31 23 24 26 24 21 18 16 16 18 18 18 22 22 18 18 20 21 22 21 19 16 16 16
24 23 23 22 22 22 21 21 21 22 22 22 22 22 22 22 23 24 26 28 29 29 28 27 26 25 24 24 24 24 26 25 23 22 21 20 19 19 21 22 22 22 23 23 22 23 23 23 23 24 25 25 28 28 25 28 28 24 24 25 28 26 26 31 28 23 26 26 25 21 17 18 19 20 19 18 23 21 17 19 20 21 22 21 19 17 18 18
23 22 22 21 21 21 21 21 21 21 21 21 21 22 22 22 23 24 25 27 28 30 30 29 29 28 27 27 25 27 28 25 24 24 23 23 22 21 21 21 22 22 23 23 24 24 24 24 25 25 26 27 29 29 27 30 28 23 25 28 28 27 27 30 28 25 27 26 26 22 19 21 21 21 17 16 21 19 18 20 20 21 22 20 18 18 18 18
23 22 21 21 21 20 20 20 20 20 20 20 21 21 22 22 23 24 24 26 28 29 31 31 30 30 30 29 28 30 29 26 26 26 24 24 25 24 23 22 22 22 22 23 23 24 25 26 26 27 28 28 30 29 28 30 27 26 29 30 30 29 28 30 29 27 27 27 27 23 21 22 23 22 16 19 21 17 18 19 19 22 21 19 18 18 18 17
23 22 21 21 20 20 20 19 19 20 19 19 20 20 21 21 23 24 25 26 27 28 30 31 31 31 31 30 30 31 29 27 28 27 25 25 25 26 26 25 24 23 23 23 23 24 25 25 25 27 27 28 30 29 29 30 28 31 30 29 31 29 28 31 29 28 27 27 26 23 22 24 25 20 15 20 21 18 19 19 19 22 21 20 19 18 18 18
23 22 22 21 20 20 20 19 19 19 19 19 19 19 19 20 21 23 24 25 27 28 29 30 31 31 31 30 31 31 30 29 29 27 26 25 25 26 26 27 26 25 25 24 25 25 25 25 25 26 28 29 29 28 31 31 30 32 29 29 31 28 29 31 28 28 27 27 26 24 25 27 23 15 15 21 20 18 19 19 20 22 21 19 19 19 19 19
23 23 22 22 21 21 20 20 20 19 19 19 19 19 19 19 20 22 23 25 26 28 29 29 29 31 30 30 30 29 30 29 28 27 26 26 25 25 26 27 28 27 27 26 25 25 25 25 25 27 28 26 27 30 31 30 29 31 28 28 30 29 30 31 29 29 29 28 27 27 27 26 21 15 19 25 20 17 19 20 21 22 21 19 18 20 21 21
24 23 23 22 22 21 21 20 20 20 19 19 19 19 19 19 20 21 22 23 25 26 28 28 28 29 29 29 28 27 28 28 27 27 26 26 25 26 26 27 28 29 28 27 26 25 25 26 26 27 27 25 28 31 29 28 28 29 28 29 31 30 31 30 29 30 30 29 27 27 26 24 22 16 20 26 20 18 20 21 22 23 21 19 18 20 21 22
25 24 24 23 22 22 21 21 20 20 20 19 19 19 19 20 20 21 21 21 23 25 27 27 28 28 28 29 27 26 27 27 26 26 25 25 26 26 26 26 27 28 28 28 27 26 26 26 26 27 27 27 30 29 26 28 29 28 29 30 30 31 29 26 30 33 30 29 28 27 26 23 17 13 24 28 21 20 21 21 23 23 21 19 18 20 21 22
25 25 24 24 23 23 22 21 20 20 20 20 20 19 20 20 21 21 20 20 21 23 24 26 27 27 28 28 27 26 27 26 24 25 24 25 26 26 26 26 27 27 27 27 27 27 27 26 26 27 27 27 28 27 27 28 28 28 29 29 29 30 26 20 29 35 29 30 31 27 27 21 9 11 27 27 22 21 21 22 23 22 21 19 19 21 22 22
26 26 25 24 24 23 23 22 21 21 20 20 20 20 20 21 21 21 20 19 19 20 22 24 25 25 27 28 27 27 25 24 23 24 24 24 25 26 25 26 26 26 27 27 26 26 26 26 26 26 26 27 27 27 28 28 28 28 27 27 27 28 26 21 27 33 30 32 34 27 26 19 10 20 31 21 18 22 21 22 24 21 20 20 20 22 21 21
27 27 26 25 25 24 24 23 22 22 21 21 20 20 21 22 22 21 20 19 18 19 20 23 23 25 27 26 26 26 24 23 23 23 23 23 25 25 25 26 26 26 26 26 26 26 25 25 25 26 26 27 27 27 27 26 25 25 25 26 26 25 28 26 22 29 31 33 35 29 25 24 19 28 33 21 17 22 22 24 25 22 20 20 21 22 22 21
28 28 27 26 26 25 25 24 23 22 22 21 21 21 22 22 22 22 20 19 18 18 19 20 22 26 26 24 26 26 24 23 23 23 23 23 24 25 25 25 26 26 26 25 25 25 25 24 24 25 25 25 25 26 24 20 16 18 22 25 26 24 28 29 21 27 33 33 35 31 27 28 27 29 33 27 22 22 24 26 26 23 21 22 23 23 23 23
28 28 28 27 27 26 26 26 25 24 23 22 21 21 22 23 23 22 20 19 19 18 18 18 20 25 25 24 25 25 23 23 23 23 22 23 24 24 24 25 25 25 25 25 24 24 24 23 23 23 23 23 24 24 24 24 22 19 20 24 26 24 25 27 24 29 36 34 33 32 29 28 29 30 34 33 28 26 28 29 27 25 23 24 25 25 25 25
28 28 29 28 28 27 27 27 26 25 24 23 22 22 23 23 24 22 20 19 20 18 18 18 20 23 25 24 24 23 23 23 23 23 22 23 23 23 24 24 24 24 24 24 23 23 22 22 22 21 23 25 25 26 28 31 30 24 23 25 26 25 21 19 23 32 38 34 31 30 29 29 30 30 31 34 31 28 29 30 28 27 26 26 28 27 27 27
27 28 28 28 28 27 27 27 26 25 24 23 23 23 24 24 24 23 20 19 20 19 18 19 20 23 24 24 23 23 23 23 23 22 22 23 23 23 24 23 23 23 23 24 23 22 22 22 21 22 25 26 24 25 27 28 26 23 24 25 25 25 21 17 24 37 37 29 29 30 30 32 32 29 28 33 32 28 30 31 29 28 28 28 29 29 28 27
26 27 27 27 27 27 26 27 26 25 24 24 24 24 24 25 25 24 22 20 20 21 19 18 21 23 24 23 22 22 23 23 24 23 22 22 23 23 23 22 23 23 23 23 22 22 21 21 21 24 25 23 22 23 24 24 24 24 23 24 23 23 23 20 23 34 35 27 27 29 31 32 33 32 32 35 32 29 30 30 30 29 29 30 31 30 29 28
25 25 25 26 25 25 24 25 26 25 24 24 24 24 25 26 26 25 24 21 20 22 21 19 21 23 22 22 21 22 23 24 24 24 22 23 24 23 22 23 23 23 23 22 23 22 20 21 24 25 23 21 22 22 22 23 23 23 22 23 24 19 20 24 24 28 33 31 29 30 30 30 32 32 32 34 32 29 30 29 30 30 30 31 31 30 29 28
23 24 24 24 24 23 22 23 24 24 24 24 23 24 25 27 27 26 25 23 21 23 23 20 22 23 22 21 21 22 24 25 25 24 23 23 24 23 23 24 24 24 23 23 24 21 21 25 26 23 21 21 21 20 20 21 20 21 21 22 23 18 17 25 30 29 27 28 29 30 30 27 29 29 29 31 31 30 30 29 29 30 30 31 30 30 28 27
24 24 24 24 25 24 23 23 24 25 25 24 23 24 25 26 27 26 26 24 23 25 24 21 22 23 22 21 21 22 24 24 24 25 24 24 24 24 25 25 24 24 23 23 24 22 22 25 23 21 21 20 19 19 19 19 19 19 19 21 24 22 19 22 29 29 23 22 24 27 28 23 23 27 27 29 30 30 30 29 29 29 29 28 28 27 25 25
26 27 27 27 27 27 26 25 26 27 27 26 25 25 26 26 27 27 26 25 24 25 25 22 22 22 21 21 21 22 23 24 24 25 24 24 24 24 25 25 25 25 24 24 23 24 25 24 21 20 19 19 19 18 17 17 17 16 16 21 25 26 26 23 24 25 21 20 22 23 24 21 21 24 25 27 28 27 26 27 28 27 27 26 25 23 23 23
28 29 29 29 30 29 29 28 28 29 29 28 27 27 26 26 27 26 26 26 26 25 25 23 22 22 21 21 21 23 24 23 22 22 24 25 25 24 25 25 25 25 24 22 21 23 25 24 20 19 19 18 17 17 18 17 16 16 15 20 25 25 25 24 22 20 19 20 20 18 20 22 22 23 22 23 23 22 22 24 26 26 26 25 24 22 22 22
28 29 29 30 30 30 31 30 29 29 29 30 29 28 27 27 28 26 26 28 25 24 26 24 23 22 22 22 22 23 22 21 21 23 24 25 25 25 26 26 25 24 23 22 21 22 24 24 23 21 19 16 15 19 20 17 18 20 17 16 22 23 22 23 22 20 20 22 21 17 19 20 18 21 23 20 20 23 23 22 24 26 27 26 24 22 22 25
26 27 28 29 29 29 30 30 29 29 29 30 30 30 29 28 28 27 30 30 24 22 25 24 24 23 21 23 23 22 21 22 24 24 24 25 25 25 26 26 25 25 24 23 24 25 23 23 23 21 19 17 19 21 19 17 19 20 16 15 19 21 21 21 20 19 21 24 21 18 20 19 17 22 24 19 20 23 22 21 22 25 27 26 25 23 24 26
23 24 25 26 27 28 28 28 28 28 29 30 31 32 31 30 29 30 32 29 22 24 25 23 25 24 21 22 23 23 23 24 25 23 23 25 25 27 27 26 26 26 25 24 26 26 23 21 21 21 21 21 20 18 17 18 19 18 16 16 17 18 19 19 18 20 23 22 19 19 20 21 19 17 17 20 25 23 19 20 21 23 23 23 24 25 23 22
21 22 23 24 25 26 26 26 26 27 28 29 31 32 32 32 33 33 31 24 20 26 26 25 26 24 22 23 22 23 24 25 25 23 25 25 24 26 27 26 27 26 24 23 25 25 22 22 20 19 21 20 17 15 17 18 18 18 17 16 16 17 17 17 17 20 21 19 18 18 19 20 20 18 19 25 26 21 18 19 18 18 18 18 22 24 22 20
20 21 21 22 24 25 26 25 25 25 27 28 30 32 33 35 36 33 29 23 22 26 25 24 25 24 24 23 23 24 24 25 26 24 25 26 25 26 26 27 28 25 22 23 23 23 23 22 21 20 20 19 18 16 16 17 18 18 17 17 18 18 17 17 17 18 17 17 19 19 19 20 21 24 28 26 21 17 18 19 16 16 17 18 21 24 24 22
20 20 21 22 23 25 25 26 25 25 26 28 29 31 34 37 36 33 28 24 24 28 27 25 24 24 24 23 24 25 24 26 27 26 26 27 27 28 27 28 28 25 24 24 24 23 23 23 22 21 19 19 18 18 17 17 18 18 17 18 19 19 17 16 15 17 16 15 17 19 21 20 20 25 28 25 22 21 20 20 18 18 20 20 21 21 21 21
20 20 21 22 23 24 25 26 26 26 27 28 30 32 35 35 34 31 27 24 25 29 30 29 27 24 24 24 25 26 24 24 26 26 27 28 28 28 28 29 28 26 26 27 25 23 23 22 21 20 20 20 19 19 20 18 17 17 19 20 20 18 17 17 18 20 19 16 17 20 21 21 22 26 27 26 26 24 22 20 20 20 20 19 19 21 20 20
21 22 22 23 23 24 25 26 27 27 28 29 31 33 34 33 31 28 25 26 28 27 25 27 29 26 24 25 26 25 23 23 25 27 28 28 28 28 27 28 29 27 27 28 26 25 23 19 19 22 23 21 19 19 21 19 16 17 20 21 19 17 19 19 17 19 22 20 18 19 20 21 25 27 27 27 25 25 25 22 20 21 21 20 22 25 25 25
23 23 24 24 25 26 27 27 28 28 29 30 32 33 33 32 30 26 26 30 33 31 27 25 26 27 26 24 24 25 25 25 28 29 28 28 28 28 27 27 28 28 28 29 27 25 25 20 20 25 22 20 21 21 22 23 21 19 18 18 18 20 22 20 16 16 20 21 19 19 18 19 22 25 26 25 24 24 26 25 25 26 26 26 26 27 27 28
24 25 25 25 26 27 28 28 29 29 30 32 32 32 32 33 31 27 30 34 34 32 32 30 27 26 27 25 23 24 26 28 30 30 28 28 29 29 28 27 29 28 27 29 27 25 26 23 24 25 21 21 24 23 23 25 24 22 19 19 20 21 22 22 21 20 19 20 20 19 20 19 19 22 24 25 26 26 27 27 29 30 30 29 28 28 28 28
24 25 26 26 25 26 28 28 29 30 31 32 32 33 33 33 32 30 33 36 33 32 34 33 29 25 26 26 24 22 24 26 30 30 28 29 30 29 29 27 28 28 27 28 27 27 27 25 24 23 20 23 26 26 26 25 24 26 25 23 23 23 23 23 23 23 20 18 19 18 19 20 21 23 27 26 24 25 27 29 30 30 30 30 29 30 30 30
23 25 25 25 25 26 26 28 29 29 31 31 32 33 33 34 34 33 35 35 33 34 34 33 32 31 30 28 26 26 26 27 30 31 30 30 31 30 31 30 29 30 30 29 29 29 28 27 25 22 23 27 27 24 25 22 21 25 26 25 25 25 26 25 24 23 20 18 18 17 18 22 23 25 28 26 23 23 26 28 30 31 31 30 30 31 31 32
22 23 23 24 24 25 25 26 27 27 28 29 31 33 33 35 35 35 36 35 34 37 37 35 36 37 35 31 29 30 30 29 30 30 30 30 30 31 31 30 31 30 29 28 29 29 29 29 27 24 24 26 23 21 23 22 21 24 26 27 27 26 26 26 25 22 20 19 17 15 19 24 24 24 26 26 25 25 25 26 29 31 31 31 32 33 33 33
21 21 22 24 24 24 24 24 23 23 24 26 29 30 33 37 35 33 34 35 35 37 38 39 40 41 40 37 34 33 32 30 27 26 29 28 27 28 29 29 29 28 26 26 29 30 29 29 30 29 26 23 22 25 26 25 25 27 27 26 26 28 27 26 26 23 21 22 20 18 21 24 23 23 24 24 26 27 26 26 28 29 30 32 33 34 35 35
21 21 23 24 24 24 24 22 20 20 21 24 25 25 27 32 33 32 33 33 35 37 38 42 42 41 42 40 38 37 37 34 27 25 30 31 27 26 29 29 27 27 28 30 31 29 26 27 29 31 30 26 26 29 27 24 25 29 29 25 24 27 27 26 26 24 23 25 24 24 26 26 24 23 23 24 27 28 28 28 28 28 29 30 32 33 33 33
22 22 23 24 25 25 24 22 19 19 22 24 23 21 22 25 29 33 34 32 33 36 39 42 41 41 42 43 41 40 39 37 32 28 30 32 30 28 27 28 29 29 31 33 32 29 26 27 28 29 31 28 25 26 26 25 26 26 26 26 26 27 27 27 27 25 25 27 26 25 26 26 26 26 25 25 26 27 27 27 27 27 27 27 28 29 29 30
24 25 25 25 26 26 24 23 21 21 23 24 23 21 21 22 25 30 34 33 34 36 38 39 40 42 43 43 42 41 41 39 35 31 29 28 31 30 23 24 29 30 31 31 31 31 31 30 29 29 32 30 26 25 25 27 28 26 26 27 27 27 28 29 29 28 28 27 26 27 27 27 27 27 28 27 26 26 26 26 26 25 25 25 26 27 27 27
25 27 27 26 26 23 20 19 18 20 23 23 22 22 21 21 23 26 30 33 35 37 37 35 35 39 42 42 41 41 40 39 37 35 31 27 30 31 23 22 27 29 27 26 27 29 32 33 34 34 35 34 32 32 31 30 27 26 28 29 27 27 29 30 29 30 30 28 27 28 28 28 28 26 26 27 28 28 26 25 24 23 24 24 24 24 25 25
26 28 29 26 22 15 10 8 8 11 16 19 20 20 20 21 22 23 27 31 33 35 37 34 31 33 38 40 40 39 39 39 38 38 34 29 29 30 26 24 26 27 26 26 25 25 27 29 32 34 36 36 36 36 35 33 29 29 32 31 29 28 29 31 31 31 32 31 29 29 30 31 32 29 25 25 29 30 28 24 21 21 23 24 23 24 24 25
28 29 27 24 15 6 3 5 4 4 8 13 16 16 17 19 21 22 26 31 33 33 32 33 32 31 34 37 38 39 39 38 38 38 37 33 31 30 28 27 26 26 26 26 25 24 25 25 27 29 32 35 36 36 36 34 33 35 36 32 29 29 29 31 33 32 33 33 33 33 32 30 30 30 27 24 26 28 27 24 21 22 24 24 24 25 25 25
28 28 24 20 11 3 3 7 6 4 4 7 11 13 15 17 20 22 24 28 33 32 28 26 28 31 32 33 36 38 38 37 36 35 36 36 34 31 31 30 28 27 27 27 25 25 25 26 25 26 27 29 30 32 36 38 39 39 37 33 31 31 30 31 32 32 33 35 36 36 34 31 28 28 27 26 24 25 24 24 23 24 25 26 26 26 26 27
27 27 22 17 11 4 1 4 9 6 3 7 9 11 13 15 17 20 22 24 27 30 28 22 23 28 30 31 34 36 37 37 35 32 33 34 33 31 33 32 28 27 28 27 26 24 24 25 25 25 26 27 27 27 31 36 40 42 40 36 34 34 33 32 32 32 34 36 37 37 37 36 33 29 27 26 25 25 25 25 26 27 27 28 27 27 27 27
26 26 24 18 13 8 2 3 8 9 2 5 7 9 10 11 14 16 19 21 21 24 26 23 21 26 29 30 30 31 32 34 34 32 33 34 33 33 33 31 28 28 28 28 27 25 24 23 24 25 25 25 25 26 27 29 33 38 41 39 37 36 36 35 34 34 35 36 37 38 38 38 36 34 31 28 26 26 27 28 29 30 30 30 28 27 28 29
24 26 26 21 16 12 7 4 7 8 5 1 5 7 7 8 11 12 15 18 18 18 21 22 23 25 27 28 28 27 28 29 30 30 31 32 33 33 33 31 30 30 29 30 29 27 25 24 23 24 24 24 24 26 26 25 25 29 33 35 36 37 37 38 38 37 36 37 38 39 38 37 36 35 33 32 30 29 29 29 30 31 31 31 30 29 30 31
Wind_Direction
282 283 283 284 284 283 283 282 281 279 277 276 274 271 269 267 266 265 266 266 267 267 268 269 270 271 271 270 269 268 267 265 263 262 259 257 254 252 251 249 249 247 247 246 245 244 243 242 242 242 242 243 242 241 241 239 239 239 239 237 233 230 216 213 230 231 218 230 249 252 236 237 244 242 237 239 238 235 238 237 236 240 244 244 243 244 247 253
282 283 284 284 284 283 283 282 281 280 278 276 273 271 268 265 263 262 262 263 264 265 266 267 268 269 269 269 268 267 265 264 261 259 257 255 253 250 249 247 246 246 245 244 242 240 239 238 237 238 239 239 238 239 238 236 237 236 235 232 229 220 207 219 219 222 222 229 250 257 239 240 246 243 236 238 237 235 237 239 246 247 249 251 246 243 250 259
281 282 283 283 283 283 283 283 282 281 279 277 274 271 267 263 260 259 258 259 260 262 263 265 266 266 267 267 266 264 263 261 258 256 254 252 249 247 245 245 244 243 242 241 239 238 235 233 233 234 236 236 235 237 235 233 233 233 231 227 225 209 208 229 227 229 235 239 252 254 243 245 246 241 235 235 234 234 234 237 246 247 250 250 246 249 258 268
280 281 282 283 284 284 284 284 283 282 280 278 275 272 268 263 259 256 255 255 256 258 259 261 263 264 265 265 264 262 261 258 255 252 250 248 246 243 241 242 241 240 240 239 237 235 233 230 230 230 232 235 234 235 234 232 232 230 230 223 215 212 218 233 236 236 240 243 249 247 244 245 242 237 228 228 230 232 233 233 238 243 246 242 247 259 267 274
278 280 282 283 284 285 285 285 284 283 281 280 277 274 270 265 260 256 254 253 253 255 256 257 259 260 260 259 259 258 257 256 255 251 248 246 243 241 238 238 238 238 237 237 236 234 233 230 228 228 230 233 233 234 234 232 230 229 230 220 213 222 227 233 236 238 242 243 245 241 239 241 238 231 220 221 228 233 234 229 230 236 238 239 252 266 270 274
277 279 281 283 284 285 286 286 285 283 282 281 279 276 272 267 262 258 254 252 251 252 253 254 255 256 255 254 253 253 254 254 254 251 248 246 242 240 237 236 236 237 237 235 235 233 232 231 229 230 230 233 235 234 232 232 229 228 230 220 222 230 229 234 239 241 244 242 240 236 235 237 234 230 219 214 220 226 230 231 232 236 235 242 257 267 268 270
275 277 279 281 283 285 285 286 285 283 282 281 279 277 275 270 266 261 257 253 250 250 250 251 251 252 251 251 251 251 252 253 252 250 249 247 244 241 237 236 234 235 236 235 234 233 232 231 229 230 230 231 236 235 232 233 231 227 227 220 225 229 220 232 240 238 239 241 240 236 234 232 229 230 220 208 217 222 229 234 235 240 241 246 256 263 264 264
273 275 277 279 281 283 284 285 284 283 282 281 279 277 275 273 269 264 260 256 252 249 248 248 248 249 249 249 250 250 251 252 252 249 247 246 244 243 239 237 236 234 235 235 235 234 233 232 231 231 231 231 235 236 232 235 234 227 228 225 227 227 220 233 240 233 236 241 241 237 232 229 226 230 225 215 223 222 227 234 233 240 246 249 253 255 256 257
270 272 274 276 278 280 282 283 283 283 282 281 279 277 275 273 270 266 262 259 255 251 248 248 247 247 248 248 249 250 250 252 254 251 248 246 243 241 240 238 237 236 236 236 236 235 235 234 232 232 232 232 235 237 234 236 237 229 229 231 230 228 223 233 238 233 235 240 242 238 231 231 228 230 229 227 230 224 225 234 233 238 243 245 246 247 249 252
267 269 271 273 275 277 279 281 282 282 281 281 279 278 276 273 271 268 263 260 257 253 250 248 248 247 248 249 250 251 251 252 255 254 252 249 244 241 239 237 237 237 237 237 237 237 236 235 234 234 234 235 237 238 237 238 239 233 230 231 231 227 224 231 234 233 234 237 241 239 234 235 233 228 228 236 233 222 228 235 234 239 242 241 241 243 245 248
265 266 267 269 271 274 276 278 279 280 280 280 279 278 278 276 273 269 265 261 257 254 251 249 248 248 248 249 250 252 253 254 255 255 254 252 247 243 240 238 237 237 237 237 237 237 237 237 236 237 238 238 240 240 240 240 239 237 233 232 235 230 228 231 233 234 234 236 240 240 237 237 235 227 224 238 234 222 229 235 235 240 243 240 240 243 243 245
263 263 264 266 268 270 272 274 276 277 277 277 278 278 278 278 276 272 267 262 258 255 251 249 248 248 249 249 250 252 253 254 255 256 255 252 249 245 242 239 238 238 238 237 237 237 237 238 236 239 240 239 242 242 242 240 238 240 236 234 238 234 232 233 233 234 234 236 238 236 236 238 238 223 219 234 231 224 231 234 237 241 243 242 241 243 243 244
260 261 262 263 264 266 268 270 272 274 274 275 276 277 278 279 279 275 270 264 259 255 252 249 248 247 248 249 250 252 253 254 255 255 253 251 248 245 242 240 238 237 237 237 238 238 238 239 237 240 240 240 245 243 241 241 239 242 239 235 237 234 233 233 232 234 234 234 234 234 236 241 242 222 223 237 231 224 232 235 239 242 243 241 240 243 244 244
258 259 259 260 261 263 265 267 269 270 271 272 273 274 276 278 279 278 274 268 261 256 253 249 247 246 247 249 249 249 252 253 253 252 251 249 246 244 242 240 239 237 237 238 238 238 238 239 239 241 241 240 243 241 240 242 240 240 239 235 234 233 233 234 232 233 235 234 233 236 235 241 246 231 234 240 230 226 232 235 239 242 244 240 239 243 244 245
257 257 258 258 259 260 262 263 265 266 268 269 271 272 273 274 277 279 278 273 265 258 253 249 247 246 245 247 248 248 251 252 251 251 249 247 245 243 242 240 239 238 237 237 237 237 237 239 240 242 241 240 241 241 242 241 237 236 235 232 232 232 231 235 237 231 233 237 233 233 232 235 240 249 259 245 224 229 233 234 238 239 242 238 238 241 242 245
256 256 256 257 258 259 260 261 262 264 265 266 267 269 270 271 273 277 279 277 270 262 255 250 246 245 245 245 246 247 249 251 252 251 247 245 244 242 241 240 238 237 236 235 235 235 236 239 241 242 242 241 241 242 241 240 237 234 233 231 230 231 225 227 243 235 228 237 234 229 231 229 212 238 255 241 216 230 234 234 240 238 239 237 237 240 242 246
256 256 255 256 256 257 258 259 260 261 263 264 264 266 267 269 270 274 278 278 274 267 258 251 246 246 246 244 244 246 248 251 252 251 247 244 243 243 241 240 238 237 236 235 234 235 236 239 240 241 241 240 239 238 237 237 236 234 232 231 228 230 220 213 243 241 223 232 235 227 223 217 199 219 232 232 218 231 236 237 242 237 235 236 237 240 242 245
256 256 255 255 255 256 257 257 258 259 261 261 262 263 265 267 269 270 274 276 276 270 261 252 246 246 246 244 246 247 248 250 251 250 247 244 243 243 241 240 239 238 237 236 236 236 237 239 239 239 238 236 236 235 236 236 238 238 232 229 224 225 221 207 233 247 225 227 234 230 223 210 209 223 229 236 232 234 239 240 243 238 233 236 238 241 243 244
257 256 255 255 254 254 255 256 256 256 258 259 260 260 262 264 267 268 270 273 273 270 264 255 247 248 247 245 247 247 246 249 249 249 246 244 244 243 241 241 240 240 238 237 236 235 236 238 238 238 238 236 235 234 232 226 232 241 233 227 219 218 225 209 214 245 230 225 232 230 229 220 218 232 239 243 238 239 244 242 243 240 235 239 241 242 243 244
257 257 256 254 254 253 254 254 254 254 255 256 258 258 260 262 264 266 267 268 268 267 264 256 248 249 249 246 246 246 246 248 248 247 245 245 243 242 241 241 241 240 239 237 235 235 234 237 237 237 238 235 233 230 224 217 218 227 223 220 215 211 227 215 208 238 234 224 231 231 232 232 226 233 245 249 240 237 243 243 245 243 239 242 243 243 243 244
258 257 256 254 253 252 252 253 253 253 253 254 255 256 258 259 262 263 263 264 265 262 261 257 249 250 250 247 247 247 247 248 248 247 245 244 243 242 240 240 240 238 237 236 234 234 234 236 236 234 235 233 230 226 225 227 228 230 222 216 214 208 219 218 211 235 238 226 229 234 234 237 234 232 242 250 242 236 241 244 244 244 243 242 243 243 243 245
259 258 256 255 253 252 252 252 252 252 252 252 252 254 256 257 259 261 261 261 263 259 255 255 252 250 249 247 246 248 249 248 248 247 244 243 241 240 239 238 238 234 234 235 233 234 234 235 235 232 233 233 231 229 230 233 232 231 226 217 214 209 205 206 215 231 237 228 227 236 236 236 238 234 234 244 245 240 241 243 243 243 243 243 244 244 244 246
261 260 258 256 254 252 251 252 252 251 251 251 251 251 253 255 257 259 259 258 261 260 251 250 252 252 250 248 246 247 248 247 247 245 242 242 240 238 236 234 234 233 232 234 232 231 232 234 234 233 235 236 234 232 231 232 227 224 223 215 210 209 203 207 227 236 237 233 226 232 238 237 238 235 233 242 247 244 243 244 244 243 243 244 244 245 246 247
263 261 260 258 256 253 252 252 252 251 251 251 251 251 252 254 255 257 258 255 257 261 254 245 248 251 250 247 246 245 245 245 244 242 239 239 239 236 233 230 229 231 230 230 229 228 229 231 232 233 235 235 234 232 229 230 229 223 222 216 205 202 209 216 235 241 234 232 227 230 239 242 241 240 239 244 248 246 245 244 244 244 244 245 246 246 245 245
264 262 261 260 257 255 253 253 254 254 253 252 252 252 251 252 254 255 256 254 254 258 256 248 247 249 249 246 245 243 242 241 242 241 238 237 237 232 229 227 227 229 227 227 228 224 225 231 233 235 235 235 235 235 233 230 229 224 221 218 204 198 212 219 230 237 232 232 232 234 242 246 249 246 241 245 247 246 243 242 242 243 243 244 245 246 244 241
264 263 262 261 259 257 255 255 257 257 255 255 254 253 252 252 253 253 255 253 252 255 256 252 248 247 246 244 243 243 243 242 241 240 238 236 235 230 227 225 225 227 225 226 227 221 225 232 232 232 234 235 235 235 234 229 229 227 221 218 210 208 214 215 227 234 232 235 234 232 233 238 250 249 240 241 244 244 241 239 240 240 240 242 242 242 238 233
265 265 264 263 262 260 258 256 257 258 258 258 256 254 253 253 253 253 254 253 251 253 255 252 250 248 245 243 242 243 243 240 239 240 238 236 234 230 228 225 223 226 226 226 227 224 228 233 231 231 231 231 232 234 234 230 225 221 219 217 213 218 222 221 228 230 227 232 232 230 226 221 235 246 243 238 238 240 239 235 235 233 232 234 233 231 229 228
266 266 265 264 263 262 261 258 256 256 258 258 256 254 253 253 253 252 253 252 248 249 252 250 249 247 244 242 241 241 242 241 242 239 236 234 231 228 226 225 224 227 228 226 226 228 231 233 229 227 227 226 229 231 229 227 217 213 217 213 210 219 226 227 229 225 226 233 232 230 225 218 228 240 242 238 235 235 234 233 233 230 227 227 225 223 223 221
266 266 265 264 263 262 261 260 257 255 255 256 255 254 253 251 252 250 249 249 246 248 251 249 247 246 243 241 239 241 241 240 239 235 232 231 229 226 224 225 224 225 226 220 219 226 229 230 227 223 222 219 224 229 223 217 214 218 222 214 211 216 222 225 224 219 224 232 232 229 224 220 227 239 241 238 233 231 228 227 233 233 227 223 220 218 216 210
267 266 265 264 264 262 261 260 258 256 254 253 253 253 251 249 250 248 246 246 244 247 249 248 245 243 241 240 238 239 239 236 236 235 234 231 228 226 225 225 225 224 224 219 220 227 228 229 228 221 215 210 219 226 219 210 215 221 222 217 218 218 221 224 221 218 223 228 226 225 224 215 217 240 249 243 233 229 226 224 231 235 227 217 211 208 207 207
268 267 266 265 264 263 261 260 258 257 254 252 251 251 250 248 247 245 245 245 245 247 248 246 245 241 238 239 238 236 235 236 238 235 234 232 228 226 224 223 224 224 225 222 225 229 229 232 231 222 217 218 223 225 217 213 217 219 216 215 219 220 223 225 219 219 224 226 224 223 226 216 209 233 248 241 235 231 232 231 230 235 232 221 211 205 205 209
271 269 268 267 266 264 262 260 258 256 255 252 250 250 250 248 245 243 245 245 244 246 247 246 245 241 236 236 235 234 233 236 237 233 232 232 230 229 227 225 225 227 228 228 231 234 231 232 233 227 223 223 226 224 218 217 217 217 215 213 213 212 217 219 218 224 225 225 225 220 224 217 207 215 221 228 236 232 233 234 224 228 233 228 219 209 208 213
275 272 270 269 268 267 265 263 259 257 255 253 251 249 248 248 246 244 243 239 237 241 244 243 243 239 235 233 233 233 232 234 234 230 231 230 229 229 227 228 228 227 228 229 230 235 234 232 230 227 224 220 220 218 216 218 218 217 214 212 209 207 215 216 215 226 228 228 229 220 220 217 210 220 223 224 235 236 236 233 222 220 222 224 222 210 207 213
279 277 275 272 271 269 268 266 262 258 255 253 252 250 247 247 247 246 243 236 235 238 238 237 238 237 235 232 232 233 229 232 233 228 229 230 228 228 226 227 228 224 224 226 225 228 232 234 230 227 225 220 214 212 213 214 215 212 206 210 211 207 218 222 214 223 227 227 234 230 225 219 214 226 230 230 236 239 232 223 219 220 221 227 230 222 219 222
284 282 280 278 275 273 271 268 265 261 256 254 252 250 249 248 249 249 245 236 234 239 240 237 236 235 234 230 231 233 228 228 233 230 229 230 230 230 228 229 230 223 222 224 223 223 226 231 232 227 225 221 212 212 215 212 210 210 203 206 210 210 220 224 217 218 215 210 224 232 228 222 219 227 233 234 237 239 234 224 222 227 231 238 243 243 243 240
287 286 285 283 280 277 274 271 268 263 259 255 252 251 251 251 250 248 244 235 229 232 236 235 233 231 232 230 228 231 226 222 229 230 229 231 232 232 231 231 231 226 224 225 223 223 223 224 230 229 226 223 214 213 217 211 206 214 215 209 207 210 219 226 229 224 217 213 223 234 231 226 228 231 232 231 230 234 240 240 236 235 237 240 242 245 246 245
290 289 287 284 282 279 276 273 270 266 261 257 254 253 252 251 249 243 240 235 227 227 232 233 232 230 230 229 226 229 225 218 224 229 227 227 230 231 231 232 232 227 224 226 225 226 224 218 225 231 230 227 219 215 218 215 204 208 219 218 215 216 216 218 225 225 220 219 227 238 236 230 237 242 241 237 232 232 236 237 235 232 232 234 236 242 246 248
293 292 289 286 284 281 277 274 270 267 262 258 256 254 251 249 246 239 238 238 230 230 235 232 230 230 230 228 222 228 231 223 224 229 227 225 227 229 228 229 231 227 222 224 224 227 226 219 224 230 228 230 226 218 220 219 210 206 211 213 215 223 224 222 224 225 225 226 228 238 243 236 237 246 247 242 238 236 234 233 232 230 230 232 235 241 247 250
298 296 293 290 287 283 279 275 271 267 263 260 257 254 250 248 245 238 239 240 230 228 232 228 224 225 226 221 212 220 233 228 225 228 227 226 227 225 222 221 226 225 221 220 218 222 224 220 223 224 218 225 227 221 222 222 217 216 216 212 211 218 224 225 227 228 231 236 233 233 243 241 232 236 243 242 238 239 237 234 233 232 232 234 236 240 245 248
303 301 297 295 291 286 282 277 272 268 264 260 257 253 250 246 241 237 238 239 229 225 228 223 220 220 222 220 211 212 221 221 223 225 226 228 229 226 223 221 222 223 222 220 217 220 222 218 220 220 215 221 227 227 227 226 224 228 226 221 218 222 225 226 227 226 222 230 236 231 235 240 234 233 242 245 243 242 239 236 234 235 236 236 238 241 244 247
309 305 301 299 296 290 286 280 276 270 265 260 255 251 247 244 239 236 239 239 229 225 224 220 219 219 219 220 217 215 218 221 225 224 222 224 226 228 228 225 225 227 225 223 220 221 223 219 217 219 220 222 226 231 231 224 223 230 232 228 224 226 230 231 232 229 219 219 226 227 235 241 238 238 244 246 245 242 237 233 234 237 238 238 239 241 243 245
315 310 306 304 301 296 291 287 280 270 263 259 255 251 246 243 239 233 236 239 232 227 225 222 221 220 218 218 219 217 217 219 223 223 220 216 217 225 229 225 226 228 225 224 224 222 223 222 218 219 224 223 220 225 228 225 222 225 229 228 225 226 230 230 231 232 232 230 224 221 232 239 237 239 241 241 241 241 236 232 233 235 237 237 239 240 242 244
321 316 312 309 306 302 297 289 279 266 256 253 253 252 248 244 239 230 229 233 232 229 228 225 224 222 220 220 219 217 217 216 215 221 223 218 214 222 229 225 224 227 226 227 229 226 224 225 221 220 225 227 227 229 230 228 226 228 230 228 225 226 227 229 231 230 234 237 231 226 231 235 236 236 236 235 237 239 239 237 235 234 234 235 238 240 241 244
328 323 319 315 310 306 297 287 273 258 251 247 244 244 244 242 238 229 223 225 227 227 229 228 225 222 222 222 219 217 220 219 215 221 226 222 221 229 233 227 224 228 229 229 232 231 228 227 225 223 224 226 231 235 236 232 231 233 234 230 228 225 223 226 230 229 229 231 230 231 233 235 238 237 236 237 237 235 236 238 237 236 236 236 237 239 241 242
334 330 325 319 312 306 295 285 270 251 245 244 240 239 239 240 238 229 223 221 222 224 227 228 224 223 223 223 220 220 222 221 218 222 226 226 228 232 231 224 223 228 231 231 231 231 231 231 230 228 226 223 222 225 229 232 234 235 235 234 232 229 226 227 228 229 233 235 236 238 236 235 237 238 238 238 236 232 233 235 235 236 237 236 237 238 239 239
339 335 330 324 316 308 297 284 267 247 241 240 240 242 241 238 236 230 223 220 220 221 224 226 223 222 222 222 221 221 223 223 222 223 225 229 237 239 236 232 230 231 234 234 232 232 234 235 234 234 233 231 228 227 227 228 228 229 233 236 236 231 229 230 231 232 235 238 240 243 242 238 238 239 239 238 236 233 232 231 230 231 232 232 232 234 236 237
344 341 337 331 323 312 305 295 265 247 243 239 238 241 241 236 233 229 221 216 217 220 221 222 221 220 220 220 220 220 222 223 224 225 224 229 239 241 239 237 234 234 238 240 238 235 235 237 238 238 238 238 237 235 231 226 222 224 231 234 234 232 231 232 234 234 234 235 237 240 242 242 242 241 239 237 235 232 231 229 226 223 227 229 230 233 236 238
351 348 345 344 340 326 348 2 339 285 258 238 232 234 236 234 229 225 220 216 215 217 218 219 218 217 217 217 217 219 221 222 224 225 223 227 235 237 237 239 238 238 241 242 240 240 241 242 243 242 240 240 240 239 235 231 227 228 233 234 233 234 235 236 237 237 237 237 239 241 242 242 242 241 239 237 233 229 227 228 228 227 230 233 235 238 240 242
358 358 357 2 14 62 36 11 358 322 256 223 224 229 233 232 225 221 219 216 215 214 214 215 215 214 214 214 215 217 219 220 222 223 224 228 233 236 238 240 240 242 245 245 245 245 245 246 248 247 245 242 240 241 240 238 236 234 234 234 233 234 234 235 238 240 240 240 241 244 244 244 245 244 239 234 229 227 225 225 227 230 233 236 238 241 243 244
5 8 11 17 32 59 64 20 15 356 264 227 228 228 231 230 223 219 218 215 214 213 211 210 210 211 211 211 214 217 218 220 222 222 225 230 233 235 238 239 240 244 248 249 249 249 249 250 251 250 250 247 243 243 242 240 239 237 235 232 230 232 235 236 238 238 239 240 242 244 246 247 248 248 243 234 228 226 226 226 229 232 235 239 242 244 246 247
10 16 21 27 34 32 352 325 5 5 313 237 232 222 222 224 218 217 216 212 210 210 210 209 209 210 210 210 214 217 219 222 225 226 229 233 235 236 239 241 242 246 249 250 251 251 250 251 252 251 251 249 248 248 247 244 240 238 237 235 231 230 233 235 237 238 239 240 241 243 245 246 247 247 246 243 237 234 233 232 234 235 237 240 243 245 248 251
14 20 26 31 37 38 29 16 22 31 49 143 213 204 201 204 203 206 207 206 207 209 209 210 212 211 211 212 214 216 219 222 225 228 231 234 236 238 240 242 243 245 248 248 249 249 248 247 250 253 253 251 249 248 246 245 243 240 240 240 237 236 236 234 234 237 239 240 241 242 243 244 245 246 246 245 244 244 243 242 240 240 242 245 248 251 254 256